Weather in Shileksha

Russia / Ivanovo Oblast     57°10′40″N   42°31′54″E
temp.,
°C
wind,
m/s
gust,
m/s
humid.,
%
clouds,
%
prec.,
mm/h
press.,
hPa
HPBL,
m
3 march, wed
wed300:00−5nw5139078 0.0 1004609
03:00−7nw5139185 0.0 1007606
06:00−7nw51293100 0.0 1008524
09:00−7nw5990100 0.1 1009562
12:00−5wnw5986100 0.1 1009765
15:00−3wnw598697 0.1 1008715
18:00−4wsw4119597 0.1 1006487
21:00−2w5129398 0.2 1004687
4 march, thu
thu400:00−2wsw51295100 0.1 1000685
03:00−2wsw61395100 0.8 998803
06:00−1wsw41096100 0.6 994603
09:000wnw71488100 1.4 9921393
12:00−2wnw7128467 0.1 9931106
15:00−1wnw7118783 0.3 9951141
18:00−3nw3989100 0.4 997532
21:00−8nnw239499 0.4 100026
5 march, fri
fri500:00−11nnw229678 0.0 100121
03:00−13nnw129759 0.0 100220
06:00−14nw129716 0.0 100420
09:00−11wnw12948 0.0 1005116
12:00−6w238987 0.0 1005418
15:00−5w348691 0.0 1006617
18:00−8w229496 0.0 100624
21:00−9w229693 0.1 100933
6 march, sat
sat600:00−12wnw239784 0.1 101060
03:00−14nw249885 0.1 101286
06:00−18nnw259672 0.0 1013104
09:00−16nw359148 0.0 1014227
12:00−12wnw358539 0.0 1014665
15:00−11wnw358469 0.1 1014848
18:00−14w3694100 0.1 1013171
21:00−17w239764 0.1 101337
7 march, sun
sun700:00−17sw239950 0.0 101139
03:00−16ssw389865 0.1 1008184
06:00−13s51292100 0.0 1004396
09:00−10ssw71392100 0.6 999784
12:00−7s71291100 0.7 9941019
15:00−5s61193100 2.3 991866
18:00−8nw3979100 1.3 991422
21:00−14nw228085 1.3 99120